• Em Portugal
  • Lista de países
  • Para 7 dias
  • Temperatura da água
  • Mapas de satélite
  • Mapa do tempo
  • Widgets de tempo
  • user-avatar
    Iniciar Sessão

    Previsão horária em Pokomsze

    Hoje, 16 Agosto, Quinta-feira

    Tempo Temperatura Precipitação Vento Pressão Humidade
    00:00 +16°C° 0 mm 2 m/s 747 mmHg 97%
    01:00 +15°C° 0 mm 2 m/s 747 mmHg 97%
    02:00 +15°C° 0 mm 2 m/s 747 mmHg 98%
    03:00 +15°C° 0 mm 2 m/s 747 mmHg 98%
    04:00 +14°C° 0 mm 2 m/s 748 mmHg 98%
    05:00 +14°C° 0 mm 2 m/s 748 mmHg 98%
    06:00 +15°C° 0 mm 2 m/s 748 mmHg 94%
    07:00 +17°C° 0 mm 2 m/s 748 mmHg 91%
    08:00 +18°C° 0 mm 2 m/s 749 mmHg 86%
    09:00 +19°C° 0,1 mm 2 m/s 749 mmHg 80%
    10:00 +20°C° 0,1 mm 2 m/s 749 mmHg 74%
    11:00 +23°C° 0,1 mm 1 m/s 749 mmHg 68%
    12:00 +23°C° 0,1 mm 1 m/s 749 mmHg 65%
    13:00 +24°C° 0,1 mm 1 m/s 749 mmHg 62%
    14:00 +24°C° 0,1 mm 1 m/s 749 mmHg 59%
    15:00 +24°C° 0 mm 1 m/s 749 mmHg 60%
    16:00 +24°C° 0 mm 1 m/s 749 mmHg 60%
    17:00 +24°C° 0 mm 1 m/s 749 mmHg 61%
    18:00 +23°C° 0 mm 1 m/s 749 mmHg 67%
    19:00 +21°C° 0 mm 1 m/s 749 mmHg 73%
    20:00 +20°C° 0 mm 1 m/s 749 mmHg 79%
    21:00 +19°C° 0 mm 1 m/s 749 mmHg 82%
    22:00 +18°C° 0 mm 1 m/s 749 mmHg 85%
    23:00 +18°C° 0 mm 1 m/s 749 mmHg 88%

    Amanhã, 17 Agosto, Sexta-feira

    Tempo Temperatura Precipitação Vento Pressão Humidade
    00:00 +16°C° 0 mm 1 m/s 749 mmHg 89%
    01:00 +16°C° 0 mm 1 m/s 749 mmHg 90%
    02:00 +16°C° 0 mm 1 m/s 749 mmHg 92%
    03:00 +15°C° 0 mm 1 m/s 749 mmHg 92%
    04:00 +15°C° 0 mm 1 m/s 749 mmHg 93%
    05:00 +15°C° 0 mm 1 m/s 749 mmHg 93%
    06:00 +16°C° 0 mm 1 m/s 749 mmHg 89%
    07:00 +19°C° 0 mm 1 m/s 749 mmHg 85%
    08:00 +19°C° 0 mm 2 m/s 749 mmHg 80%
    09:00 +21°C° 0 mm 2 m/s 749 mmHg 75%
    10:00 +23°C° 0 mm 2 m/s 749 mmHg 69%
    11:00 +24°C° 0 mm 2 m/s 749 mmHg 63%
    12:00 +25°C° 0 mm 2 m/s 749 mmHg 60%
    13:00 +26°C° 0 mm 2 m/s 749 mmHg 58%
    14:00 +26°C° 0 mm 2 m/s 748 mmHg 55%
    15:00 +26°C° 0 mm 2 m/s 748 mmHg 55%
    16:00 +26°C° 0 mm 1 m/s 748 mmHg 56%
    17:00 +26°C° 0 mm 1 m/s 748 mmHg 56%
    18:00 +24°C° 0 mm 1 m/s 748 mmHg 62%
    19:00 +23°C° 0 mm 1 m/s 747 mmHg 69%
    20:00 +21°C° 0 mm 1 m/s 747 mmHg 75%
    21:00 +18°C° 0 mm 0 m/s 747 mmHg 78%
    22:00 +17°C° 0 mm 0 m/s 748 mmHg 81%
    23:00 +17°C° 0 mm 0 m/s 748 mmHg 84%

    Depois de amanhã, 18 Agosto, Sábado

    Tempo Temperatura Precipitação Vento Pressão Humidade
    00:00 +16°C° 0 mm 0 m/s 748 mmHg 85%
    01:00 +16°C° 0 mm 0 m/s 747 mmHg 86%
    02:00 +16°C° 0 mm 0 m/s 747 mmHg 87%
    03:00 +16°C° 0 mm 0 m/s 747 mmHg 87%
    04:00 +15°C° 0 mm 0 m/s 748 mmHg 88%
    05:00 +15°C° 0 mm 0 m/s 748 mmHg 89%
    06:00 +17°C° 0 mm 0 m/s 748 mmHg 84%
    07:00 +18°C° 0 mm 0 m/s 748 mmHg 79%
    08:00 +20°C° 0 mm 0 m/s 748 mmHg 74%
    09:00 +22°C° 0 mm 0 m/s 748 mmHg 68%
    10:00 +23°C° 0 mm 0 m/s 748 mmHg 62%
    11:00 +25°C° 0 mm 0 m/s 748 mmHg 56%
    12:00 +27°C° 0 mm 1 m/s 748 mmHg 53%
    13:00 +28°C° 0 mm 1 m/s 748 mmHg 51%
    14:00 +28°C° 0 mm 1 m/s 747 mmHg 49%
    15:00 +27°C° 0 mm 1 m/s 747 mmHg 52%
    16:00 +27°C° 0 mm 1 m/s 747 mmHg 54%
    17:00 +27°C° 0 mm 2 m/s 747 mmHg 57%
    18:00 +25°C° 0 mm 1 m/s 747 mmHg 63%
    19:00 +23°C° 0 mm 1 m/s 747 mmHg 69%
    20:00 +21°C° 0 mm 1 m/s 747 mmHg 75%
    21:00 +21°C° 0,1 mm 1 m/s 747 mmHg 78%
    22:00 +20°C° 0,1 mm 1 m/s 748 mmHg 81%
    23:00 +19°C° 0,1 mm 1 m/s 748 mmHg 84%

    19 Agosto, Domingo

    Tempo Temperatura Precipitação Vento Pressão Humidade
    00:00 +19°C° 0,2 mm 1 m/s 748 mmHg 87%
    01:00 +18°C° 0,2 mm 2 m/s 748 mmHg 90%
    02:00 +17°C° 0,2 mm 2 m/s 748 mmHg 93%
    03:00 +17°C° 0 mm 2 m/s 748 mmHg 95%
    04:00 +16°C° 0 mm 2 m/s 748 mmHg 96%
    05:00 +16°C° 0 mm 2 m/s 748 mmHg 97%
    06:00 +16°C° 0 mm 2 m/s 748 mmHg 93%
    07:00 +17°C° 0 mm 3 m/s 748 mmHg 89%
    08:00 +18°C° 0 mm 3 m/s 749 mmHg 85%
    09:00 +19°C° 0 mm 3 m/s 749 mmHg 77%
    10:00 +20°C° 0 mm 3 m/s 749 mmHg 69%
    11:00 +22°C° 0 mm 3 m/s 749 mmHg 60%
    12:00 +22°C° 0 mm 3 m/s 749 mmHg 59%
    13:00 +23°C° 0 mm 4 m/s 748 mmHg 59%
    14:00 +23°C° 0 mm 4 m/s 748 mmHg 58%
    15:00 +23°C° 0 mm 4 m/s 748 mmHg 61%
    16:00 +23°C° 0 mm 4 m/s 748 mmHg 64%
    17:00 +22°C° 0 mm 4 m/s 748 mmHg 67%
    18:00 +21°C° 0 mm 3 m/s 748 mmHg 74%
    19:00 +20°C° 0 mm 2 m/s 748 mmHg 80%
    20:00 +18°C° 0 mm 2 m/s 748 mmHg 86%
    21:00 +18°C° 0 mm 2 m/s 748 mmHg 89%
    22:00 +17°C° 0 mm 2 m/s 749 mmHg 92%
    23:00 +16°C° 0 mm 2 m/s 749 mmHg 94%

    20 Agosto, Segunda-feira

    Tempo Temperatura Precipitação Vento Pressão Humidade
    00:00 +16°C° 0 mm 2 m/s 749 mmHg 95%
    01:00 +15°C° 0 mm 2 m/s 748 mmHg 95%
    02:00 +15°C° 0 mm 2 m/s 748 mmHg 96%
    03:00 +15°C° 0 mm 2 m/s 748 mmHg 96%
    04:00 +14°C° 0 mm 1 m/s 748 mmHg 96%
    05:00 +14°C° 0 mm 1 m/s 748 mmHg 96%
    06:00 +15°C° 0 mm 1 m/s 748 mmHg 92%
    07:00 +17°C° 0 mm 2 m/s 748 mmHg 88%
    08:00 +18°C° 0 mm 2 m/s 749 mmHg 84%
    09:00 +19°C° 0 mm 2 m/s 749 mmHg 78%
    10:00 +21°C° 0 mm 2 m/s 749 mmHg 71%
    11:00 +23°C° 0 mm 2 m/s 749 mmHg 64%
    12:00 +24°C° 0 mm 2 m/s 748 mmHg 62%
    13:00 +24°C° 0 mm 2 m/s 748 mmHg 60%
    14:00 +25°C° 0 mm 2 m/s 748 mmHg 57%
    15:00 +25°C° 0,1 mm 2 m/s 748 mmHg 59%
    16:00 +25°C° 0,1 mm 2 m/s 748 mmHg 60%
    17:00 +25°C° 0,1 mm 1 m/s 747 mmHg 62%
    18:00 +23°C° 0,1 mm 1 m/s 747 mmHg 68%
    19:00 +22°C° 0,1 mm 1 m/s 747 mmHg 73%
    20:00 +20°C° 0,1 mm 1 m/s 747 mmHg 79%
    21:00 +20°C° 0,1 mm 1 m/s 747 mmHg 80%
    22:00 +19°C° 0,1 mm 2 m/s 747 mmHg 82%
    23:00 +19°C° 0,1 mm 2 m/s 747 mmHg 83%

    21 Agosto, Terça-feira

    Tempo Temperatura Precipitação Vento Pressão Humidade
    00:00 +18°C° 0,1 mm 3 m/s 747 mmHg 84%
    01:00 +18°C° 0,1 mm 3 m/s 746 mmHg 84%
    02:00 +18°C° 0,1 mm 3 m/s 746 mmHg 85%
    03:00 +17°C° 0,1 mm 3 m/s 746 mmHg 85%
    04:00 +17°C° 0,1 mm 3 m/s 746 mmHg 85%
    05:00 +17°C° 0,1 mm 3 m/s 746 mmHg 85%
    06:00 +18°C° 0,1 mm 3 m/s 746 mmHg 84%
    07:00 +18°C° 0,1 mm 3 m/s 746 mmHg 83%
    08:00 +19°C° 0,1 mm 3 m/s 746 mmHg 82%
    09:00 +20°C° 0 mm 3 m/s 746 mmHg 78%
    10:00 +22°C° 0 mm 3 m/s 746 mmHg 74%
    11:00 +24°C° 0 mm 3 m/s 746 mmHg 69%
    12:00 +25°C° 0,2 mm 3 m/s 746 mmHg 68%
    13:00 +25°C° 0,2 mm 4 m/s 746 mmHg 67%
    14:00 +26°C° 0,2 mm 4 m/s 746 mmHg 66%
    15:00 +25°C° 0,2 mm 3 m/s 746 mmHg 68%
    16:00 +25°C° 0,2 mm 3 m/s 746 mmHg 71%
    17:00 +25°C° 0,2 mm 3 m/s 746 mmHg 73%
    18:00 +23°C° 0 mm 2 m/s 746 mmHg 78%
    19:00 +21°C° 0 mm 2 m/s 746 mmHg 84%
    20:00 +21°C° 0 mm 1 m/s 746 mmHg 89%
    21:00 +20°C° 0 mm 1 m/s 746 mmHg 91%
    22:00 +19°C° 0 mm 1 m/s 746 mmHg 92%
    23:00 +18°C° 0 mm 1 m/s 746 mmHg 93%
    Mostrar mais